Marysville, MI

8:57 AM EDT on September 26, 2016 (GMT -0400)
Saint Clair County International

Weather History for KPHN - February, 2013

Change the Weather History Date:

Sunday, February 3, 2013

  Actual Average (KMTC) Record (KMTC)
Temperature  
Mean Temperature 14 °F -  
Max Temperature 23 °F 30 °F 57 °F (2016)
Min Temperature 5 °F 16 °F -6 °F (1951)
Degree Days  
Heating Degree Days 51    
Moisture  
Dew Point 7 °F    
Average Humidity 73    
Maximum Humidity 85    
Minimum Humidity 54    
Precipitation  
Precipitation 0.00 in - - ()
Sea Level Pressure  
Sea Level Pressure 29.90 in    
Wind  
Wind Speed 4 mph (West)    
Max Wind Speed 12 mph    
Max Gust Speed 18 mph    
Visibility 10 miles    
Events Snow    
Averages and records for this station are not official NWS values.
T = Trace of Precipitation, MM = Missing Value Source: NWS Daily Summary

Daily Weather History Graph

Daily Weather History Graph

Search for Another Location

Airport or City:

Trip Planner

Search our weather history database for the weather conditions in past years. The results will help you decide how hot, cold, wet, or windy it might be!

Date:

Astronomy

Feb. 03, 2013 Rise Set
Actual Time 7:42 AM EST 5:46 PM EST
Civil Twilight 7:12 AM EST 6:15 PM EST
Nautical Twilight 6:38 AM EST 6:49 PM EST
Astronomical Twilight 6:05 AM EST 7:22 PM EST
Moon 1:09 AM EST (2/3) 11:21 AM EST (2/3)
Length of Visible Light 11h 03m
Length of Day
10h 03m
Waning Gibbous, 49% of the Moon is Illuminated
Feb 3
Waning Gibbous
Feb 10
New
Feb 17
First Quarter
Feb 25
Full
Mar 4
Last Quarter

Hourly Weather History & Observations

Time (EST) Temp. Windchill Dew Point Humidity Pressure Visibility Wind Dir Wind Speed Gust Speed Precip Events Conditions
12:18 AM 6.8 °F -2.0 °F 3.2 °F 85% 29.99 in 10.0 mi WNW 4.6 mph - N/A   Clear
12:43 AM 6.8 °F -3.5 °F 3.2 °F 85% 29.98 in 10.0 mi WNW 5.8 mph - N/A   Clear
12:58 AM 6.8 °F -0.1 °F 3.2 °F 85% 29.98 in 10.0 mi West 3.5 mph - N/A   Clear
1:18 AM 6.8 °F -2.0 °F 3.2 °F 85% 29.98 in 10.0 mi West 4.6 mph - N/A   Clear
1:38 AM 6.8 °F -2.0 °F 3.2 °F 85% 29.97 in 10.0 mi WNW 4.6 mph - N/A   Clear
1:58 AM 6.8 °F -0.1 °F 3.2 °F 85% 29.97 in 10.0 mi WNW 3.5 mph - N/A   Clear
2:18 AM 6.8 °F - 1.4 °F 79% 29.96 in 10.0 mi Calm Calm - N/A   Scattered Clouds
2:38 AM 5.0 °F - 1.4 °F 85% 29.97 in 10.0 mi Calm Calm - N/A   Mostly Cloudy
2:58 AM 6.8 °F - 3.2 °F 85% 29.96 in 10.0 mi Calm Calm - N/A   Overcast
3:18 AM 6.8 °F - 3.2 °F 85% 29.95 in 10.0 mi Calm Calm - N/A   Overcast
3:38 AM 8.6 °F - 3.2 °F 79% 29.94 in 10.0 mi Calm Calm - N/A   Scattered Clouds
3:58 AM 6.8 °F - 3.2 °F 85% 29.93 in 10.0 mi Calm Calm - N/A   Mostly Cloudy
4:18 AM 6.8 °F - 1.4 °F 79% 29.92 in 10.0 mi Calm Calm - N/A   Mostly Cloudy
4:38 AM 6.8 °F - 3.2 °F 85% 29.92 in 10.0 mi Calm Calm - N/A   Overcast
4:58 AM 8.6 °F 2.0 °F 5.0 °F 85% 29.91 in 10.0 mi WNW 3.5 mph - N/A   Overcast
5:18 AM 8.6 °F - 3.2 °F 79% 29.91 in 10.0 mi Calm Calm - N/A   Overcast
5:38 AM 6.8 °F - 1.4 °F 79% 29.91 in 10.0 mi Calm Calm - N/A   Scattered Clouds
5:58 AM 5.0 °F - 1.4 °F 85% 29.91 in 10.0 mi Calm Calm - N/A   Mostly Cloudy
6:18 AM 6.8 °F - 3.2 °F 85% 29.91 in 10.0 mi Calm Calm - N/A   Overcast
6:38 AM 8.6 °F - 5.0 °F 85% 29.90 in 10.0 mi Calm Calm - N/A   Overcast
6:58 AM 8.6 °F - 5.0 °F 85% 29.90 in 10.0 mi Calm Calm - N/A   Overcast
7:18 AM 8.6 °F - 5.0 °F 85% 29.90 in 10.0 mi Calm Calm - N/A   Overcast
7:38 AM 10.4 °F - 5.0 °F 79% 29.89 in 10.0 mi Calm Calm - N/A   Overcast
7:58 AM 10.4 °F - 5.0 °F 79% 29.90 in 10.0 mi Calm Calm - N/A   Overcast
8:18 AM 10.4 °F 4.0 °F 5.0 °F 79% 29.90 in 10.0 mi WNW 3.5 mph - N/A   Overcast
8:38 AM 12.2 °F 6.1 °F 6.8 °F 79% 29.90 in 10.0 mi SW 3.5 mph - N/A   Overcast
8:58 AM 12.2 °F 6.1 °F 6.8 °F 79% 29.89 in 10.0 mi West 3.5 mph - N/A   Overcast
9:18 AM 14.0 °F 8.2 °F 8.6 °F 79% 29.89 in 10.0 mi West 3.5 mph - N/A   Overcast
9:38 AM 14.0 °F 6.5 °F 8.6 °F 79% 29.89 in 10.0 mi WNW 4.6 mph - N/A   Mostly Cloudy
9:58 AM 14.0 °F 8.2 °F 8.6 °F 79% 29.89 in 10.0 mi West 3.5 mph - N/A   Clear
10:18 AM 15.8 °F 7.2 °F 8.6 °F 73% 29.89 in 10.0 mi WSW 5.8 mph - N/A   Mostly Cloudy
10:38 AM 15.8 °F 7.2 °F 8.6 °F 73% 29.88 in 10.0 mi West 5.8 mph - N/A   Overcast
10:58 AM 17.6 °F 10.7 °F 8.6 °F 68% 29.88 in 10.0 mi SW 4.6 mph - N/A   Overcast
11:18 AM 17.6 °F 12.3 °F 6.8 °F 63% 29.87 in 10.0 mi WSW 3.5 mph - N/A   Mostly Cloudy
11:38 AM 17.6 °F 10.7 °F 6.8 °F 63% 29.87 in 10.0 mi West 4.6 mph - N/A   Mostly Cloudy
11:58 AM 19.4 °F 12.8 °F 6.8 °F 58% 29.86 in 10.0 mi West 4.6 mph - N/A   Overcast
12:18 PM 19.4 °F 10.4 °F 6.8 °F 58% 29.85 in 10.0 mi WNW 6.9 mph - N/A   Overcast
12:38 PM 21.2 °F 11.7 °F 6.8 °F 54% 29.84 in 10.0 mi WSW 8.1 mph - N/A   Mostly Cloudy
12:58 PM 21.2 °F 10.9 °F 6.8 °F 54% 29.84 in 10.0 mi SW 9.2 mph - N/A   Overcast
1:18 PM 21.2 °F 13.6 °F 8.6 °F 58% 29.83 in 10.0 mi SW 5.8 mph - N/A   Overcast
1:38 PM 21.2 °F 12.6 °F 6.8 °F 54% 29.83 in 10.0 mi West 6.9 mph - N/A   Overcast
1:58 PM 21.2 °F 16.4 °F 6.8 °F 54% 29.83 in 10.0 mi SW 3.5 mph - N/A   Overcast
2:18 PM 23.0 °F 17.0 °F 8.6 °F 54% 29.83 in 10.0 mi SW 4.6 mph - N/A   Overcast
2:38 PM 23.0 °F 17.0 °F 8.6 °F 54% 29.82 in 10.0 mi West 4.6 mph - N/A   Overcast
2:58 PM 23.0 °F 15.8 °F 10.4 °F 59% 29.82 in 10.0 mi WSW 5.8 mph - N/A   Overcast
3:18 PM 23.0 °F 13.1 °F 10.4 °F 59% 29.83 in 10.0 mi SW 9.2 mph - N/A   Overcast
3:38 PM 21.2 °F 13.6 °F 12.2 °F 68% 29.83 in 10.0 mi SW 5.8 mph - N/A   Overcast
3:58 PM 21.2 °F 14.9 °F 14.0 °F 74% 29.84 in 4.0 mi SW 4.6 mph - N/A Snow Light Snow
4:18 PM 21.2 °F 11.7 °F 14.0 °F 74% 29.84 in 5.0 mi SW 8.1 mph - N/A Snow Light Snow
4:38 PM 21.2 °F 16.4 °F 14.0 °F 74% 29.84 in 5.0 mi West 3.5 mph - N/A Snow Light Snow
4:58 PM 21.2 °F 14.9 °F 15.8 °F 80% 29.85 in 2.0 mi West 4.6 mph - N/A Snow Light Snow
5:38 PM 21.2 °F 9.5 °F 10.4 °F 63% 29.86 in 10.0 mi West 11.5 mph 18.4 mph N/A   Overcast
5:58 PM 21.2 °F 12.6 °F 10.4 °F 63% 29.87 in 10.0 mi West 6.9 mph 18.4 mph N/A   Overcast
6:18 PM 21.2 °F 11.7 °F 12.2 °F 68% 29.88 in 10.0 mi West 8.1 mph - N/A   Overcast
6:38 PM 21.2 °F 12.6 °F 10.4 °F 63% 29.88 in 10.0 mi West 6.9 mph - N/A   Overcast
6:58 PM 21.2 °F 12.6 °F 10.4 °F 63% 29.89 in 10.0 mi West 6.9 mph - N/A   Overcast
7:18 PM 21.2 °F 13.6 °F 10.4 °F 63% 29.89 in 10.0 mi West 5.8 mph - N/A   Overcast
7:38 PM 21.2 °F 13.6 °F 12.2 °F 68% 29.90 in 10.0 mi West 5.8 mph - N/A   Overcast
7:58 PM 19.4 °F 10.4 °F 12.2 °F 74% 29.91 in 10.0 mi West 6.9 mph - N/A   Overcast
8:18 PM 19.4 °F 12.8 °F 14.0 °F 80% 29.91 in 4.0 mi West 4.6 mph - N/A Snow Light Snow
8:38 PM 19.4 °F 8.6 °F 14.0 °F 80% 29.91 in 10.0 mi West 9.2 mph - N/A   Overcast
8:58 PM 19.4 °F 7.9 °F 12.2 °F 74% 29.92 in 10.0 mi West 10.4 mph 16.1 mph N/A   Overcast
9:18 PM 19.4 °F 7.2 °F 10.4 °F 68% 29.93 in 10.0 mi WNW 11.5 mph 18.4 mph N/A   Overcast
9:38 PM 19.4 °F 10.4 °F 10.4 °F 68% 29.94 in 10.0 mi West 6.9 mph - N/A   Mostly Cloudy
9:58 PM 17.6 °F 8.2 °F 8.6 °F 68% 29.95 in 10.0 mi West 6.9 mph - N/A   Scattered Clouds
10:18 PM 17.6 °F 8.2 °F 6.8 °F 63% 29.95 in 10.0 mi West 6.9 mph - N/A   Clear
10:38 PM 15.8 °F 7.2 °F 6.8 °F 68% 29.96 in 10.0 mi West 5.8 mph - N/A   Clear
10:58 PM 15.8 °F 10.2 °F 6.8 °F 68% 29.96 in 10.0 mi West 3.5 mph - N/A   Clear
11:18 PM 15.8 °F 8.6 °F 6.8 °F 68% 29.96 in 10.0 mi West 4.6 mph - N/A   Clear
11:38 PM 15.8 °F 10.2 °F 6.8 °F 68% 29.97 in 10.0 mi WSW 3.5 mph - N/A   Clear
11:58 PM 14.0 °F 8.2 °F 6.8 °F 73% 29.97 in 10.0 mi West 3.5 mph - N/A   Clear